EZY83YQ LEPA-EGAA

Flight info

Callsign EZY83YQ
Flight time N/A
Altitude 36000
Route DRAGO4R DRAGO DCT PAPOS DCT UMURE N863 GIROM DCT AGN DCT SECHE DCT UVELI DCT CNA DCT MANAK UY110 TIRAV UT183 BAGAD DCT DOLUR DCT UPCAB DCT IJALA DCT EVRIN DCT BUNED DCT DIRUM/N0450F370 DCT BAL DCT DUB N34 BELZU
Aircraft A320/M-SDE3FGHIRWY/LB1

Departure

Time 2026-05-06 16:33
Airport Palma de Mallorca Airport (LEPA)

Arrival

Time N/A
Airport Belfast International Airport (EGAA)
Time Latitude Longitude Altitude Speed Heading
2026-05-06 15:33 39.55130 2.72971 38 ft 0 kts 161°
2026-05-06 15:39 39.55131 2.72971 38 ft 0 kts 161°
2026-05-06 16:15 39.55139 2.72967 38 ft 3 kts 160°
2026-05-06 16:15 39.55160 2.72956 37 ft 3 kts 152°
2026-05-06 16:15 39.55178 2.72941 35 ft 3 kts 134°
2026-05-06 16:16 39.55189 2.72920 38 ft 3 kts 88°
2026-05-06 16:16 39.55187 2.72905 35 ft 1 kts 59°
2026-05-06 16:16 39.55186 2.72904 35 ft 0 kts 59°
2026-05-06 16:21 39.55193 2.72919 38 ft 5 kts 59°
2026-05-06 16:22 39.55219 2.72974 38 ft 10 kts 58°
2026-05-06 16:22 39.55264 2.73067 37 ft 15 kts 57°
2026-05-06 16:22 39.55325 2.73196 38 ft 19 kts 59°
2026-05-06 16:22 39.55394 2.73341 37 ft 19 kts 58°
2026-05-06 16:23 39.55464 2.73489 37 ft 17 kts 58°
2026-05-06 16:23 39.55469 2.73621 38 ft 18 kts 144°
2026-05-06 16:23 39.55354 2.73710 36 ft 19 kts 149°
2026-05-06 16:23 39.55246 2.73795 38 ft 19 kts 148°
2026-05-06 16:24 39.55129 2.73887 38 ft 19 kts 149°
2026-05-06 16:24 39.55008 2.73983 38 ft 21 kts 148°
2026-05-06 16:24 39.54888 2.74077 38 ft 19 kts 148°
2026-05-06 16:24 39.54778 2.74102 36 ft 17 kts 224°
2026-05-06 16:25 39.54715 2.73971 38 ft 16 kts 238°
2026-05-06 16:25 39.54658 2.73849 38 ft 16 kts 238°
2026-05-06 16:25 39.54599 2.73725 36 ft 17 kts 238°
2026-05-06 16:25 39.54540 2.73601 38 ft 15 kts 238°
2026-05-06 16:26 39.54495 2.73506 38 ft 10 kts 238°
2026-05-06 16:26 39.54469 2.73450 38 ft 6 kts 238°
2026-05-06 16:26 39.54450 2.73409 38 ft 5 kts 238°
2026-05-06 16:26 39.54422 2.73351 38 ft 10 kts 238°
2026-05-06 16:27 39.54391 2.73287 38 ft 8 kts 238°
2026-05-06 16:27 39.54367 2.73236 38 ft 6 kts 238°
2026-05-06 16:27 39.54340 2.73183 38 ft 8 kts 229°
2026-05-06 16:27 39.54299 2.73168 38 ft 4 kts 168°
2026-05-06 16:28 39.54287 2.73179 36 ft 0 kts 138°
2026-05-06 16:30 39.54275 2.73199 38 ft 5 kts 120°
2026-05-06 16:30 39.54268 2.73265 38 ft 9 kts 90°
2026-05-06 16:31 39.54268 2.73360 38 ft 12 kts 89°
2026-05-06 16:31 39.54272 2.73473 38 ft 13 kts 76°
2026-05-06 16:31 39.54300 2.73537 37 ft 12 kts 58°
2026-05-06 16:31 39.54327 2.73595 38 ft 1 kts 58°
2026-05-06 16:32 39.54327 2.73596 38 ft 0 kts 58°
2026-05-06 16:32 39.54349 2.73641 38 ft 24 kts 58°
2026-05-06 16:32 39.54575 2.74117 38 ft 97 kts 58°
2026-05-06 16:32 39.55033 2.75089 39 ft 153 kts 58°
2026-05-06 16:33 39.55649 2.76405 246 ft 181 kts 58°
2026-05-06 16:33 39.56286 2.77886 708 ft 195 kts 61°
2026-05-06 16:33 39.56928 2.79473 1268 ft 202 kts 61°
2026-05-06 16:34 39.58437 2.82745 2537 ft 216 kts 58°
2026-05-06 16:34 39.59230 2.84417 3277 ft 220 kts 58°
2026-05-06 16:34 39.60032 2.86124 3980 ft 223 kts 58°
2026-05-06 16:34 39.60844 2.87863 4688 ft 227 kts 58°
2026-05-06 16:35 39.61737 2.89536 5361 ft 230 kts 42°
2026-05-06 16:35 39.63122 2.90551 5982 ft 234 kts 12°
2026-05-06 16:35 39.65358 2.90318 6398 ft 258 kts 332°
2026-05-06 16:35 39.66334 2.89406 6668 ft 266 kts 310°
2026-05-06 16:36 39.67242 2.87307 7330 ft 271 kts 290°
2026-05-06 16:36 39.67929 2.85019 8120 ft 273 kts 290°
2026-05-06 16:36 39.68634 2.82714 8933 ft 276 kts 290°
2026-05-06 16:36 39.69350 2.80392 9776 ft 278 kts 290°
2026-05-06 16:37 39.70082 2.78031 10332 ft 290 kts 290°
2026-05-06 16:37 39.70867 2.75495 10533 ft 314 kts 290°
2026-05-06 16:37 39.71708 2.72767 10694 ft 335 kts 290°
2026-05-06 16:37 39.72589 2.69903 11195 ft 345 kts 290°
2026-05-06 16:38 39.73472 2.67032 11867 ft 348 kts 290°
2026-05-06 16:38 39.74374 2.64098 12591 ft 350 kts 290°
2026-05-06 16:38 39.75280 2.61146 13295 ft 353 kts 290°
2026-05-06 16:38 39.76199 2.58151 13939 ft 357 kts 290°
2026-05-06 16:39 39.77119 2.55139 14533 ft 360 kts 289°
2026-05-06 16:39 39.78043 2.52106 15155 ft 362 kts 289°
2026-05-06 16:39 39.78971 2.49054 15802 ft 363 kts 289°
2026-05-06 16:39 39.79888 2.46038 16413 ft 365 kts 289°
2026-05-06 16:40 39.80824 2.42966 17015 ft 367 kts 289°
2026-05-06 16:40 39.81766 2.39866 17611 ft 369 kts 288°
2026-05-06 16:40 39.82712 2.36745 18208 ft 372 kts 288°
2026-05-06 16:40 39.83665 2.33606 18724 ft 374 kts 288°
2026-05-06 16:41 39.84626 2.30442 19244 ft 377 kts 288°
2026-05-06 16:41 39.85591 2.27266 19776 ft 379 kts 288°
2026-05-06 16:41 39.86559 2.24067 20303 ft 380 kts 288°
2026-05-06 16:41 39.87528 2.20856 20797 ft 382 kts 288°
2026-05-06 16:42 39.88506 2.17615 21279 ft 385 kts 288°
2026-05-06 16:42 39.89490 2.14349 21747 ft 387 kts 287°
2026-05-06 16:42 39.90475 2.11076 22194 ft 389 kts 287°
2026-05-06 16:42 39.91465 2.07780 22630 ft 392 kts 287°
2026-05-06 16:43 39.92459 2.04465 23067 ft 394 kts 287°
2026-05-06 16:43 39.93462 2.01130 23488 ft 396 kts 287°
2026-05-06 16:43 39.94469 1.97777 23839 ft 399 kts 287°
2026-05-06 16:43 39.95468 1.94436 24189 ft 400 kts 287°
2026-05-06 16:44 39.96476 1.91047 24531 ft 402 kts 287°
2026-05-06 16:44 39.97488 1.87645 24884 ft 403 kts 287°
2026-05-06 16:44 39.98507 1.84231 25224 ft 405 kts 288°
2026-05-06 16:44 39.99794 1.80936 25551 ft 412 kts 298°
2026-05-06 16:45 40.01586 1.77966 25871 ft 422 kts 308°
2026-05-06 16:45 40.03853 1.75472 26212 ft 433 kts 320°
2026-05-06 16:45 40.06539 1.73593 26520 ft 445 kts 331°
2026-05-06 16:45 40.09435 1.72121 26809 ft 447 kts 332°
2026-05-06 16:46 40.12340 1.70641 27089 ft 449 kts 332°
2026-05-06 16:46 40.15253 1.69143 27364 ft 451 kts 331°
2026-05-06 16:46 40.18178 1.67633 27621 ft 453 kts 331°
2026-05-06 16:46 40.21119 1.66118 27885 ft 454 kts 331°
2026-05-06 16:47 40.24034 1.64623 28138 ft 456 kts 331°
2026-05-06 16:47 40.27004 1.63101 28404 ft 458 kts 331°
2026-05-06 16:47 40.29989 1.61568 28639 ft 460 kts 331°
2026-05-06 16:47 40.32945 1.60048 28854 ft 461 kts 330°
2026-05-06 16:48 40.35942 1.58501 29091 ft 462 kts 330°
2026-05-06 16:48 40.38898 1.56971 29411 ft 461 kts 330°
2026-05-06 16:48 40.41894 1.55421 29732 ft 460 kts 330°
2026-05-06 16:48 40.44888 1.53870 30029 ft 460 kts 330°
2026-05-06 16:49 40.47835 1.52345 30317 ft 459 kts 330°
2026-05-06 16:49 40.50807 1.50805 30605 ft 458 kts 330°
2026-05-06 16:49 40.53772 1.49266 30887 ft 456 kts 330°
2026-05-06 16:49 40.56691 1.47746 31164 ft 455 kts 330°
2026-05-06 16:50 40.59639 1.46209 31435 ft 454 kts 330°
2026-05-06 16:50 40.62584 1.44675 31713 ft 453 kts 330°
2026-05-06 16:50 40.65487 1.43161 31986 ft 452 kts 330°
2026-05-06 16:50 40.68421 1.41628 32267 ft 451 kts 330°
2026-05-06 16:51 40.71302 1.40121 32542 ft 450 kts 330°
2026-05-06 16:51 40.74212 1.38601 32811 ft 449 kts 330°
2026-05-06 16:51 40.77111 1.37087 33091 ft 448 kts 329°
2026-05-06 16:51 40.80015 1.35568 33368 ft 447 kts 329°
2026-05-06 16:52 40.82902 1.34051 33638 ft 446 kts 329°
2026-05-06 16:52 40.85784 1.32532 33911 ft 445 kts 329°
2026-05-06 16:52 40.88665 1.31016 34140 ft 444 kts 329°
2026-05-06 16:52 40.91503 1.29522 34379 ft 444 kts 330°
2026-05-06 16:53 40.94387 1.28002 34541 ft 445 kts 330°
2026-05-06 16:53 40.97275 1.26478 34715 ft 446 kts 330°
2026-05-06 16:53 41.00160 1.24957 34895 ft 446 kts 330°
2026-05-06 16:53 41.03049 1.23437 35076 ft 446 kts 330°
2026-05-06 16:54 41.05935 1.21916 35249 ft 446 kts 330°
2026-05-06 16:54 41.08822 1.20388 35421 ft 447 kts 330°
2026-05-06 16:54 41.11666 1.18877 35585 ft 447 kts 330°
2026-05-06 16:54 41.14629 1.17550 35774 ft 454 kts 339°
2026-05-06 16:55 41.17765 1.16802 35891 ft 463 kts 348°
2026-05-06 16:55 41.24234 1.16159 35919 ft 466 kts 349°
2026-05-06 16:56 41.30705 1.15495 35916 ft 466 kts 348°
2026-05-06 16:56 41.37201 1.14806 35909 ft 467 kts 349°
2026-05-06 16:57 41.43647 1.14121 35902 ft 465 kts 349°
2026-05-06 16:57 41.50067 1.13441 35899 ft 465 kts 349°
2026-05-06 16:58 41.56538 1.12757 35915 ft 465 kts 349°
2026-05-06 16:58 41.62995 1.12080 35906 ft 465 kts 349°
2026-05-06 16:59 41.69444 1.11399 35919 ft 465 kts 349°
2026-05-06 16:59 41.75852 1.10719 35935 ft 464 kts 349°
2026-05-06 17:00 41.82306 1.10029 35969 ft 464 kts 349°
2026-05-06 17:00 41.88746 1.09340 35975 ft 464 kts 349°
2026-05-06 17:01 41.95140 1.08659 35983 ft 463 kts 349°
2026-05-06 17:01 42.01570 1.07968 35986 ft 463 kts 349°
2026-05-06 17:02 42.08004 1.07279 35964 ft 463 kts 349°
2026-05-06 17:02 42.14391 1.06591 35941 ft 463 kts 349°
2026-05-06 17:03 42.20809 1.05906 35930 ft 463 kts 350°
2026-05-06 17:03 42.27242 1.05225 35920 ft 463 kts 350°
2026-05-06 17:04 42.33654 1.04508 35920 ft 462 kts 349°
2026-05-06 17:04 42.40020 1.03789 35921 ft 462 kts 349°
2026-05-06 17:05 42.46434 1.03081 35950 ft 462 kts 350°
2026-05-06 17:05 42.52862 1.02394 35964 ft 462 kts 350°
2026-05-06 17:06 42.59226 1.01704 35960 ft 461 kts 350°
2026-05-06 17:06 42.65661 1.01008 35985 ft 461 kts 350°
2026-05-06 17:07 42.72018 1.00343 35992 ft 461 kts 350°
2026-05-06 17:07 42.78441 0.99651 35991 ft 461 kts 350°
2026-05-06 17:08 42.84803 0.98935 35995 ft 461 kts 350°
2026-05-06 17:08 42.91220 0.98222 35992 ft 461 kts 350°
2026-05-06 17:09 42.97577 0.97514 35987 ft 460 kts 350°
2026-05-06 17:09 43.03964 0.96815 36004 ft 460 kts 351°
2026-05-06 17:10 43.10325 0.96119 36004 ft 459 kts 351°
2026-05-06 17:10 43.16726 0.95400 36001 ft 459 kts 351°
2026-05-06 17:11 43.23070 0.94687 36006 ft 459 kts 351°
2026-05-06 17:11 43.29386 0.93989 35998 ft 458 kts 351°
2026-05-06 17:12 43.35746 0.93284 35988 ft 457 kts 351°
2026-05-06 17:12 43.42067 0.92552 35984 ft 457 kts 351°
2026-05-06 17:13 43.48376 0.91822 35994 ft 456 kts 351°
2026-05-06 17:13 43.54712 0.91102 35990 ft 456 kts 351°
2026-05-06 17:14 43.61010 0.90397 35984 ft 455 kts 351°
2026-05-06 17:14 43.67324 0.89684 35990 ft 455 kts 352°
2026-05-06 17:15 43.73637 0.88986 35981 ft 455 kts 352°
2026-05-06 17:15 43.79942 0.88303 35974 ft 454 kts 352°
2026-05-06 17:16 43.86243 0.87566 35982 ft 453 kts 348°
2026-05-06 17:16 43.92200 0.85139 35980 ft 444 kts 332°
2026-05-06 17:17 43.97785 0.81508 35978 ft 444 kts 332°
2026-05-06 17:17 44.03391 0.77899 35996 ft 444 kts 332°
2026-05-06 17:18 44.08986 0.74290 35994 ft 443 kts 332°
2026-05-06 17:18 44.14568 0.70666 35993 ft 442 kts 332°
2026-05-06 17:19 44.20141 0.67032 35993 ft 442 kts 332°
2026-05-06 17:19 44.25681 0.63428 35996 ft 442 kts 332°
2026-05-06 17:20 44.31252 0.59804 35971 ft 442 kts 332°
2026-05-06 17:20 44.36831 0.56162 35968 ft 442 kts 332°
2026-05-06 17:21 44.42395 0.52514 35978 ft 442 kts 332°
2026-05-06 17:21 44.47962 0.48840 35966 ft 442 kts 332°
2026-05-06 17:22 44.53514 0.45150 35959 ft 442 kts 332°
2026-05-06 17:22 44.59074 0.41451 35955 ft 442 kts 332°
2026-05-06 17:23 44.64624 0.37750 35956 ft 442 kts 333°
2026-05-06 17:23 44.70180 0.34046 35961 ft 442 kts 333°
2026-05-06 17:24 44.75731 0.30335 35957 ft 441 kts 333°
2026-05-06 17:24 44.81269 0.26631 35958 ft 441 kts 333°
2026-05-06 17:25 44.86805 0.22910 35960 ft 441 kts 332°
2026-05-06 17:25 44.92334 0.19174 35962 ft 441 kts 332°
2026-05-06 17:26 44.97862 0.15444 35962 ft 440 kts 333°
2026-05-06 17:26 45.02459 0.12342 35971 ft 440 kts 333°
2026-05-06 17:27 45.07989 0.08604 35964 ft 440 kts 333°
2026-05-06 17:27 45.13487 0.04873 35958 ft 440 kts 333°
2026-05-06 17:28 45.19018 0.01116 35956 ft 440 kts 333°
2026-05-06 17:28 45.24537 -0.02643 35963 ft 440 kts 333°
2026-05-06 17:29 45.30052 -0.06424 35972 ft 439 kts 333°
2026-05-06 17:29 45.35557 -0.10201 35961 ft 439 kts 333°
2026-05-06 17:30 45.41031 -0.13946 35962 ft 438 kts 333°
2026-05-06 17:30 45.46535 -0.17719 35960 ft 438 kts 333°
2026-05-06 17:31 45.52030 -0.21507 35962 ft 438 kts 333°
2026-05-06 17:31 45.57486 -0.25272 35960 ft 438 kts 333°
2026-05-06 17:32 45.62978 -0.29083 35962 ft 438 kts 333°
2026-05-06 17:32 45.68120 -0.33594 35957 ft 436 kts 320°
2026-05-06 17:33 45.72874 -0.38977 35951 ft 436 kts 321°
2026-05-06 17:33 45.77662 -0.44360 35955 ft 436 kts 321°
2026-05-06 17:34 45.82416 -0.49719 35956 ft 437 kts 321°
2026-05-06 17:34 45.87174 -0.55106 35954 ft 437 kts 321°
2026-05-06 17:35 45.91947 -0.60535 35954 ft 437 kts 321°
2026-05-06 17:35 45.96687 -0.65937 35962 ft 437 kts 321°
2026-05-06 17:36 46.03851 -0.74107 35963 ft 437 kts 321°
2026-05-06 17:36 46.08597 -0.79534 35959 ft 437 kts 321°
2026-05-06 17:37 46.13358 -0.84986 35966 ft 437 kts 321°
2026-05-06 17:37 46.18093 -0.90434 35973 ft 437 kts 321°
2026-05-06 17:38 46.22852 -0.95923 35978 ft 437 kts 321°
2026-05-06 17:38 46.27605 -1.01412 35978 ft 437 kts 321°
2026-05-06 17:39 46.32335 -1.06894 35975 ft 437 kts 320°
2026-05-06 17:39 46.37064 -1.12388 35983 ft 437 kts 320°
2026-05-06 17:40 46.41804 -1.17907 35975 ft 437 kts 320°
2026-05-06 17:40 46.46558 -1.23452 35967 ft 437 kts 320°
2026-05-06 17:41 46.51284 -1.28976 35972 ft 437 kts 320°
2026-05-06 17:41 46.56001 -1.34502 35975 ft 437 kts 320°
2026-05-06 17:42 46.60631 -1.40189 35977 ft 437 kts 314°
2026-05-06 17:42 46.64867 -1.46589 35976 ft 437 kts 314°
2026-05-06 17:43 46.69062 -1.52944 35974 ft 437 kts 313°
2026-05-06 17:43 46.73265 -1.59338 35973 ft 437 kts 313°
2026-05-06 17:44 46.77483 -1.65760 35970 ft 437 kts 313°
2026-05-06 17:44 46.81667 -1.72135 35971 ft 437 kts 313°
2026-05-06 17:45 46.85878 -1.78572 35970 ft 437 kts 313°
2026-05-06 17:45 46.90062 -1.84982 35972 ft 437 kts 313°
2026-05-06 17:46 46.94240 -1.91413 35970 ft 437 kts 313°
2026-05-06 17:46 46.98429 -1.97881 35976 ft 437 kts 313°
2026-05-06 17:47 47.02625 -2.04322 35977 ft 437 kts 314°
2026-05-06 17:47 47.06905 -2.10669 35971 ft 437 kts 315°
2026-05-06 17:48 47.11201 -2.16975 35974 ft 437 kts 314°
2026-05-06 17:48 47.15461 -2.23305 35976 ft 437 kts 314°
2026-05-06 17:49 47.19708 -2.29655 35979 ft 437 kts 314°
2026-05-06 17:49 47.23947 -2.36010 35977 ft 437 kts 314°
2026-05-06 17:50 47.28216 -2.42418 35976 ft 437 kts 314°
2026-05-06 17:50 47.32459 -2.48812 35970 ft 437 kts 314°
2026-05-06 17:51 47.36695 -2.55200 35975 ft 437 kts 314°
2026-05-06 17:51 47.40951 -2.61631 35972 ft 437 kts 313°
2026-05-06 17:52 47.45182 -2.68043 35974 ft 437 kts 313°
2026-05-06 17:52 47.49434 -2.74511 35975 ft 438 kts 313°
2026-05-06 17:53 47.53651 -2.80941 35973 ft 438 kts 313°
2026-05-06 17:53 47.57898 -2.87376 35972 ft 438 kts 317°
2026-05-06 17:54 47.62750 -2.92916 35971 ft 439 kts 322°
2026-05-06 17:54 47.67649 -2.98276 35968 ft 439 kts 322°
2026-05-06 17:55 47.72547 -3.03654 35970 ft 439 kts 322°
2026-05-06 17:55 47.77438 -3.09027 35978 ft 439 kts 322°
2026-05-06 17:56 47.82355 -3.14441 35974 ft 439 kts 322°
2026-05-06 17:56 47.87248 -3.19854 35974 ft 439 kts 322°
2026-05-06 17:57 47.92137 -3.25276 35973 ft 439 kts 322°
2026-05-06 17:57 47.97020 -3.30697 35980 ft 439 kts 322°
2026-05-06 17:58 48.01934 -3.36172 35978 ft 439 kts 322°
2026-05-06 17:58 48.06807 -3.41614 35975 ft 439 kts 322°
2026-05-06 17:59 48.11696 -3.47076 35978 ft 439 kts 322°
2026-05-06 17:59 48.16607 -3.52577 35978 ft 439 kts 322°
2026-05-06 18:00 48.21479 -3.58062 35987 ft 439 kts 322°
2026-05-06 18:00 48.26374 -3.63576 35994 ft 439 kts 322°
2026-05-06 18:01 48.31259 -3.69096 35993 ft 439 kts 322°
2026-05-06 18:01 48.36111 -3.74578 35994 ft 439 kts 322°
2026-05-06 18:02 48.40998 -3.80126 36002 ft 439 kts 322°
2026-05-06 18:02 48.45875 -3.85684 36004 ft 439 kts 322°
2026-05-06 18:03 48.50758 -3.91258 35999 ft 439 kts 321°
2026-05-06 18:03 48.55607 -3.96803 35978 ft 439 kts 321°
2026-05-06 18:04 48.60455 -4.02364 35991 ft 439 kts 321°
2026-05-06 18:04 48.65332 -4.07981 35987 ft 439 kts 321°
2026-05-06 18:05 48.70168 -4.13564 35992 ft 439 kts 321°
2026-05-06 18:05 48.75015 -4.19154 35998 ft 439 kts 321°
2026-05-06 18:06 48.79863 -4.24756 36006 ft 439 kts 321°
2026-05-06 18:06 48.84728 -4.30398 36006 ft 439 kts 321°
2026-05-06 18:07 48.89552 -4.36006 36014 ft 439 kts 321°
2026-05-06 18:07 48.94401 -4.41658 36002 ft 439 kts 321°
2026-05-06 18:08 48.99221 -4.47292 36005 ft 439 kts 321°
2026-05-06 18:08 49.04057 -4.52974 36010 ft 439 kts 321°
2026-05-06 18:09 49.08913 -4.58690 36007 ft 439 kts 321°
2026-05-06 18:09 49.13711 -4.64349 36006 ft 439 kts 321°
2026-05-06 18:10 49.18540 -4.70055 36006 ft 439 kts 321°
2026-05-06 18:10 49.23368 -4.75774 36012 ft 438 kts 321°
2026-05-06 18:11 49.28171 -4.81480 36014 ft 438 kts 321°
2026-05-06 18:11 49.32978 -4.87198 36014 ft 438 kts 321°
2026-05-06 18:12 49.37802 -4.92960 36008 ft 438 kts 321°
2026-05-06 18:12 49.42594 -4.98700 36024 ft 438 kts 320°
2026-05-06 18:13 49.47385 -5.04439 36010 ft 438 kts 321°
2026-05-06 18:13 49.52622 -5.09316 36013 ft 439 kts 329°
2026-05-06 18:14 49.57930 -5.13889 36012 ft 439 kts 329°
2026-05-06 18:14 49.63255 -5.18513 36015 ft 439 kts 329°
2026-05-06 18:15 49.68562 -5.23131 36012 ft 439 kts 329°
2026-05-06 18:15 49.73874 -5.27763 36007 ft 439 kts 329°
2026-05-06 18:16 49.79211 -5.32416 36008 ft 439 kts 329°
2026-05-06 18:16 49.84511 -5.37054 36012 ft 439 kts 328°
2026-05-06 18:17 49.89821 -5.41721 36005 ft 439 kts 328°
2026-05-06 18:17 49.95130 -5.46396 36003 ft 439 kts 328°
2026-05-06 18:18 50.00426 -5.51079 36003 ft 439 kts 328°
2026-05-06 18:18 50.05723 -5.55767 36004 ft 439 kts 328°
2026-05-06 18:19 50.11050 -5.60485 36010 ft 439 kts 329°
2026-05-06 18:19 50.16341 -5.65198 36002 ft 440 kts 328°
2026-05-06 18:20 50.21669 -5.69956 35999 ft 440 kts 329°
2026-05-06 18:20 50.26970 -5.74675 36002 ft 440 kts 329°
2026-05-06 18:21 50.32281 -5.79435 36011 ft 440 kts 329°
2026-05-06 18:21 50.37555 -5.84180 36012 ft 440 kts 329°
2026-05-06 18:22 50.42881 -5.88981 36014 ft 440 kts 329°
2026-05-06 18:22 50.48160 -5.93745 36013 ft 440 kts 329°
2026-05-06 18:23 50.53452 -5.98544 36022 ft 440 kts 329°
2026-05-06 18:23 50.58753 -6.03357 36024 ft 440 kts 328°
2026-05-06 18:24 50.64062 -6.08188 36017 ft 440 kts 329°
2026-05-06 18:24 50.69346 -6.13007 36019 ft 440 kts 329°
2026-05-06 18:25 50.74634 -6.17839 36025 ft 440 kts 329°
2026-05-06 18:25 50.79904 -6.22679 36026 ft 439 kts 328°
2026-05-06 18:26 50.85199 -6.27571 36027 ft 439 kts 328°
2026-05-06 18:26 50.90668 -6.31800 36022 ft 441 kts 341°
2026-05-06 18:27 50.96663 -6.33811 36019 ft 442 kts 348°
2026-05-06 18:27 51.02702 -6.35581 36015 ft 442 kts 348°
2026-05-06 18:28 51.08769 -6.37378 36013 ft 442 kts 348°
2026-05-06 18:28 51.14800 -6.39174 36013 ft 442 kts 348°
2026-05-06 18:29 51.20839 -6.40943 36022 ft 442 kts 348°
2026-05-06 18:29 51.26873 -6.42712 36023 ft 442 kts 348°
2026-05-06 18:30 51.32930 -6.44430 36025 ft 442 kts 349°
2026-05-06 18:30 51.38998 -6.45986 36025 ft 441 kts 350°
2026-05-06 18:31 51.45031 -6.47522 36028 ft 441 kts 350°
2026-05-06 18:31 51.51104 -6.49101 36027 ft 440 kts 350°
2026-05-06 18:32 51.57129 -6.50701 36026 ft 440 kts 350°
2026-05-06 18:32 51.63167 -6.52307 36029 ft 440 kts 350°
2026-05-06 18:33 51.68194 -6.53641 36028 ft 439 kts 350°
2026-05-06 18:33 51.74209 -6.55234 36027 ft 439 kts 350°
2026-05-06 18:34 51.80277 -6.56473 36023 ft 439 kts 357°
2026-05-06 18:34 51.86344 -6.56936 36019 ft 438 kts 356°
2026-05-06 18:35 51.92418 -6.57411 36026 ft 437 kts 357°
2026-05-06 18:35 51.98515 -6.57888 36028 ft 437 kts 357°
2026-05-06 18:36 52.04569 -6.58371 36025 ft 436 kts 357°
2026-05-06 18:36 52.10609 -6.58857 36026 ft 436 kts 357°
2026-05-06 18:37 52.16659 -6.59337 36028 ft 435 kts 357°
2026-05-06 18:37 52.22714 -6.59811 36027 ft 435 kts 357°
2026-05-06 18:38 52.28737 -6.60286 36021 ft 434 kts 357°
2026-05-06 18:38 52.34753 -6.60773 36018 ft 434 kts 357°
2026-05-06 18:39 52.40808 -6.61268 36012 ft 433 kts 357°
2026-05-06 18:40 52.49796 -6.61981 36008 ft 432 kts 358°
2026-05-06 18:40 52.55815 -6.62455 36005 ft 432 kts 357°
2026-05-06 18:41 52.61778 -6.62943 36006 ft 431 kts 357°
2026-05-06 18:41 52.67782 -6.63427 36003 ft 430 kts 357°
2026-05-06 18:42 52.73739 -6.63908 36003 ft 430 kts 357°
2026-05-06 18:42 52.79724 -6.64398 35998 ft 429 kts 357°
2026-05-06 18:43 52.85667 -6.64885 36003 ft 429 kts 357°
2026-05-06 18:43 52.91607 -6.65380 36002 ft 428 kts 357°
2026-05-06 18:44 52.97527 -6.65778 35989 ft 427 kts
2026-05-06 18:44 53.03336 -6.63883 35992 ft 428 kts 20°
2026-05-06 18:45 53.08812 -6.59998 35991 ft 428 kts 22°
2026-05-06 18:45 53.14286 -6.56073 35980 ft 428 kts 21°
2026-05-06 18:46 53.19754 -6.52148 35974 ft 428 kts 22°
2026-05-06 18:46 53.25226 -6.48202 35878 ft 428 kts 22°
2026-05-06 18:46 53.27949 -6.46232 34912 ft 433 kts 22°
2026-05-06 18:47 53.30727 -6.44224 33990 ft 434 kts 22°
2026-05-06 18:47 53.33499 -6.42255 33002 ft 432 kts 21°
2026-05-06 18:47 53.36280 -6.40308 31863 ft 435 kts 21°
2026-05-06 18:47 53.39069 -6.38363 30652 ft 441 kts 21°
2026-05-06 18:48 53.41934 -6.36364 29254 ft 449 kts 21°
2026-05-06 18:48 53.44836 -6.34322 28209 ft 449 kts 21°
2026-05-06 18:48 53.47658 -6.32372 27653 ft 438 kts 18°
2026-05-06 18:48 53.50575 -6.31011 26941 ft 431 kts
2026-05-06 18:49 53.53512 -6.30460 26252 ft 425 kts
2026-05-06 18:49 53.56471 -6.30285 25572 ft 421 kts
2026-05-06 18:49 53.59368 -6.30102 24914 ft 418 kts
2026-05-06 18:49 53.62268 -6.29912 24266 ft 415 kts
2026-05-06 18:50 53.65149 -6.29719 23620 ft 412 kts
2026-05-06 18:50 53.67974 -6.29532 22923 ft 409 kts
2026-05-06 18:50 53.70819 -6.29343 22333 ft 404 kts
2026-05-06 18:50 53.73612 -6.29158 21747 ft 400 kts
2026-05-06 18:51 53.76354 -6.28977 21209 ft 396 kts
2026-05-06 18:51 53.79108 -6.28795 20674 ft 393 kts
2026-05-06 18:51 53.81828 -6.28614 20161 ft 389 kts
2026-05-06 18:51 53.84528 -6.28434 19674 ft 386 kts 359°
2026-05-06 18:52 53.87179 -6.28261 19182 ft 383 kts 359°
2026-05-06 18:52 53.89842 -6.28088 18705 ft 381 kts 359°
2026-05-06 18:52 53.92477 -6.27916 18227 ft 378 kts 359°
2026-05-06 18:52 53.95104 -6.27743 17713 ft 374 kts 359°
2026-05-06 18:53 53.97660 -6.27573 17241 ft 370 kts 359°
2026-05-06 18:53 54.00225 -6.27403 16769 ft 367 kts 359°
2026-05-06 18:53 54.02766 -6.27236 16283 ft 364 kts 359°
2026-05-06 18:53 54.05288 -6.27073 15802 ft 361 kts 359°
2026-05-06 18:54 54.07795 -6.26909 15284 ft 360 kts 359°
2026-05-06 18:54 54.10294 -6.26745 14798 ft 359 kts 359°
2026-05-06 18:54 54.12787 -6.26580 14271 ft 358 kts 359°
2026-05-06 18:54 54.15279 -6.26410 13748 ft 358 kts 359°
2026-05-06 18:55 54.17764 -6.26242 13175 ft 357 kts 359°
2026-05-06 18:55 54.20233 -6.26075 12645 ft 354 kts 360°
2026-05-06 18:55 54.22688 -6.25910 12102 ft 352 kts 360°
2026-05-06 18:55 54.25124 -6.25750 11561 ft 350 kts 360°
2026-05-06 18:56 54.27551 -6.25587 11010 ft 348 kts 360°
2026-05-06 18:56 54.29928 -6.25421 10592 ft 342 kts
2026-05-06 18:56 54.32274 -6.24656 10157 ft 340 kts 13°
2026-05-06 18:56 54.34502 -6.23570 10039 ft 326 kts 15°
2026-05-06 18:57 54.36507 -6.21900 9914 ft 316 kts 29°
2026-05-06 18:57 54.38366 -6.20003 9780 ft 305 kts 28°
2026-05-06 18:57 54.40163 -6.18172 9545 ft 297 kts 28°
2026-05-06 18:57 54.41931 -6.16372 9186 ft 294 kts 28°
2026-05-06 18:58 54.43687 -6.14586 8808 ft 292 kts 29°
2026-05-06 18:58 54.45427 -6.12825 8435 ft 289 kts 28°
2026-05-06 18:58 54.47156 -6.11077 8024 ft 288 kts 28°
2026-05-06 18:58 54.48882 -6.09338 7650 ft 285 kts 28°
2026-05-06 18:59 54.50588 -6.07629 7282 ft 283 kts 28°
2026-05-06 18:59 54.52263 -6.05945 6903 ft 282 kts 29°
2026-05-06 18:59 54.53974 -6.04244 6536 ft 279 kts 29°
2026-05-06 18:59 54.55628 -6.02613 6140 ft 277 kts 28°
2026-05-06 19:00 54.57286 -6.00979 5870 ft 270 kts 29°
2026-05-06 19:00 54.58879 -5.99412 5734 ft 257 kts 29°
2026-05-06 19:00 54.60416 -5.97892 5586 ft 247 kts 29°
2026-05-06 19:00 54.61876 -5.96446 5278 ft 245 kts 29°
2026-05-06 19:01 54.63354 -5.94984 4949 ft 245 kts 28°
2026-05-06 19:01 54.64830 -5.93516 4580 ft 245 kts 29°
2026-05-06 19:01 54.66307 -5.92056 4249 ft 243 kts 29°
2026-05-06 19:01 54.67775 -5.90622 3943 ft 242 kts 29°
2026-05-06 19:02 54.69218 -5.89218 3805 ft 233 kts 29°
2026-05-06 19:02 54.70609 -5.87886 3675 ft 224 kts 25°
2026-05-06 19:02 54.72080 -5.87500 3543 ft 210 kts 342°
2026-05-06 19:02 54.73240 -5.88734 3428 ft 190 kts 304°
2026-05-06 19:03 54.73709 -5.90754 3118 ft 179 kts 269°
2026-05-06 19:03 54.73446 -5.92798 2777 ft 173 kts 241°
2026-05-06 19:03 54.72938 -5.94694 2557 ft 173 kts 242°
2026-05-06 19:03 54.72430 -5.96597 2528 ft 175 kts 241°
2026-05-06 19:04 54.71917 -5.98521 2533 ft 176 kts 242°
2026-05-06 19:04 54.71413 -6.00414 2535 ft 175 kts 242°
2026-05-06 19:04 54.70893 -6.02364 2431 ft 176 kts 242°